[[{"header":{"parameterUnit":"m.s-1","parameterCategory":2,"la1":30.2991,"la2":30.254,"lo1":-89.0895,"lo2":-89.0444,"dy":0.0017,"dx":0.0017,"nx":28,"ny":28,"refTime":"2024-07-09T03:00:00:Z","depth":"0","parameterNumber":2,"parameterNumberName":"U-component_of_CURRENTS"},"data":[0,0,0,0,0,0,0,0,0,0,0,0,0,0,0,0,0,0,0,0,0,0,0,0,0,0,0,0,0,0,0,0,0,0,0,0,0,0,0,0,0,0,0,0,0,0,0,0,0,0,0,0,0,0,0,0,0,0,0.2839,0.2839,0,0.2909,0.2909,0.291,0.2909,0.2909,0.2908,0.2907,0.2902,0.2902,0.2903,0,0,0,0,0,0,0,0,0,0,0,0,0,0.2711,0.2713,0.2838,0.284,0.2841,0.2909,0.291,0.291,0.2909,0.2909,0.2908,0.2907,0.2901,0.2902,0.2903,0,0,0,0,0,0,0,0,0,0,0,0,0,0.277,0.2713,0.2838,0.285,0.2852,0.2909,0.291,0.291,0.291,0.2909,0.2907,0.2906,0.2901,0.2902,0.2903,0.293,0,0,0.2905,0.2906,0,0,0,0,0,0,0,0,0.2767,0.2774,0.2847,0.2849,0.2852,0.2901,0.2863,0.2914,0.291,0.2885,0.2907,0.2906,0.2897,0.2898,0.2912,0.293,0.293,0.2905,0.2906,0.2906,0.2906,0,0,0,0,0,0,0,0.2762,0.2771,0.2864,0.2848,0.2851,0.2854,0.2861,0.2873,0.2893,0.2887,0.2888,0.29,0.2897,0.2911,0.2911,0.2929,0.2905,0.2906,0.2907,0.2907,0.2982,0.2984,0,0,0,0,0,0,0.2759,0.2768,0.2862,0.2866,0.2808,0.2858,0.2865,0.2885,0.2895,0.2897,0.2901,0.29,0.291,0.291,0.2911,0.296,0.2906,0.2907,0.2907,0.2981,0.2983,0.2984,0,0,0,0,0,0,0.2757,0.2768,0.2859,0.282,0.2832,0.2861,0.2883,0.2887,0.2902,0.2906,0.2906,0.2912,0.2909,0.291,0.2927,0.2959,0.2907,0.2908,0.2979,0.2981,0.2983,0.3048,0,0,0,0,0,0,0.2753,0.2766,0.2782,0.282,0.2834,0.2898,0.2884,0.2889,0.2912,0.2911,0.2916,0.2914,0.2908,0.2926,0.2927,0.2959,0.2909,0.2977,0.298,0.2983,0.3044,0.3052,0.306,0,0,0,0,0,0.2748,0.277,0.2783,0.2794,0.2854,0.2899,0.2907,0.2922,0.2913,0.2929,0.293,0.2914,0.2945,0.2928,0.2929,0.2962,0.2976,0.2979,0.2983,0.3041,0.3051,0.3059,0,0,0,0,0,0,0.2723,0.2774,0.2788,0.2825,0.2863,0.29,0.2919,0.2928,0.2944,0.2939,0.2932,0.2932,0.2963,0.2953,0.2934,0.2993,0.2959,0.2963,0.3003,0.3012,0.302,0.3043,0.2909,0,0,0,0,0,0.2727,0.2756,0.2806,0.2835,0.2857,0.289,0.291,0.2923,0.2942,0.2949,0.2955,0.2961,0.2981,0.2986,0.3,0.3028,0.3077,0.3052,0.3059,0.3066,0.3087,0.3185,0.3204,0.2996,0.2995,0.2995,0,0,0.2724,0.2757,0.2773,0.2832,0.2862,0.2899,0.2899,0.2935,0.2964,0.2945,0.298,0.299,0.2996,0.3033,0.3045,0.3025,0.3156,0.307,0.3076,0.3094,0.3191,0.3211,0.323,0.2998,0.2997,0.2997,0,0,0.2735,0.2766,0.2797,0.2831,0.2883,0.2907,0.2919,0.2964,0.2984,0.3022,0.3021,0.3054,0.3072,0.3095,0.3105,0.3164,0.3196,0.3162,0.3218,0.3312,0.3331,0.3348,0.3462,0.3488,0.3162,0.3162,0.3162,0,0.2731,0.2777,0.2812,0.2851,0.2882,0.2911,0.2951,0.298,0.3023,0.3056,0.3037,0.3115,0.3109,0.3178,0.3194,0.3184,0.3251,0.318,0.3325,0.3343,0.3359,0.3471,0.3499,0.3166,0.3165,0.3165,0.3165,0,0.2765,0.2804,0.2824,0.2884,0.2922,0.2958,0.3009,0.305,0.3074,0.3107,0.3184,0.3199,0.3252,0.3252,0.3238,0.3349,0.3366,0.3328,0.3305,0.3384,0.3497,0.3526,0.3171,0.317,0.3169,0.3168,0,0,0.2751,0.2834,0.284,0.2877,0.2942,0.298,0.3042,0.3118,0.3177,0.3217,0.3308,0.3339,0.3365,0.338,0.3382,0.345,0.3616,0.344,0.3443,0.356,0.3862,0.3835,0.3864,0.3609,0.3614,0.3618,0.3905,0,0.277,0.284,0.288,0.2946,0.2989,0.3044,0.3103,0.3173,0.3236,0.3329,0.3375,0.345,0.3408,0.3451,0.3518,0.3599,0.3691,0.3544,0.3762,0.3769,0.3741,0.3895,0.3742,0.3981,0.3933,0.3938,0.3941,0,0.2786,0.2837,0.2904,0.2995,0.3022,0.3063,0.3184,0.3245,0.3371,0.3426,0.3519,0.3566,0.3691,0.3629,0.384,0.3755,0.3823,0.3872,0.3883,0.3856,0.3795,0.3889,0.4035,0.3884,0.3985,0.3981,0.3978,0,0.2761,0.285,0.2905,0.2933,0.3041,0.3092,0.3154,0.3274,0.3354,0.3507,0.3595,0.3726,0.3827,0.3933,0.4033,0.3965,0.4265,0.418,0.4228,0.4228,0.4139,0.4123,0.4168,0.4339,0.4339,0.4338,0.4337,0,0.2763,0.2807,0.2897,0.293,0.3015,0.3087,0.3196,0.3283,0.3426,0.3537,0.3646,0.3767,0.3909,0.4076,0.4133,0.4301,0.4361,0.4297,0.4316,0.4158,0.414,0.4034,0.3971,0.4349,0.4346,0.4344,0.4342,0,0.2736,0.2788,0.2863,0.2971,0.3006,0.3071,0.3212,0.3292,0.3434,0.3596,0.3658,0.3867,0.4089,0.4233,0.4443,0.4447,0.4469,0.4612,0.443,0.4421,0.4277,0.4224,0.421,0.4089,0.4737,0.4738,0.4739,0,0.2733,0.2764,0.2879,0.2924,0.2976,0.3074,0.3138,0.328,0.3368,0.364,0.3714,0.399,0.4141,0.4469,0.457,0.4743,0.4542,0.4662,0.4479,0.4304,0.4261,0.4062,0.3945,0.4411,0.441,0.4408,0.4407,0,0.2743,0.278,0.2845,0.292,0.2988,0.3061,0.3162,0.3228,0.3407,0.3557,0.3755,0.3906,0.4243,0.4361,0.4599,0.4654,0.4423,0.4637,0.4505,0.4075,0.3817,0.3695,0.42,0.4395,0.4396,0.4397,0.4398,0.4398,0.2761,0.2787,0.2858,0.2918,0.2982,0.3017,0.3034,0.3156,0.3281,0.3468,0.3683,0.3871,0.4126,0.444,0.4454,0.44,0.4378,0.4266,0.425,0.4087,0.3854,0.4347,0.4509,0.4511,0.4512,0.4514,0.4515,0,0.2776,0.2792,0.2847,0.29,0.2907,0.2958,0.302,0.3011,0.3095,0.334,0.3512,0.3795,0.3937,0.4079,0.4178,0.4033,0.3807,0.391,0.3574,0.3501,0.4004,0.3865,0.3832,0.3832,0.3832,0.3833,0.3833,0.3833,0.2796,0.282,0.2815,0.2805,0.2813,0.2758,0.2747,0.2775,0.2888,0.3058,0.3227,0.3453,0.3729,0.3902,0.3794,0.3704,0.3374,0.3258,0.3229,0.3553,0.3581,0.3608,0.3458,0.3341,0.334,0.2543,0.2537,0.2533]},{"header":{"parameterUnit":"m.s-1","parameterCategory":2,"la1":30.2991,"la2":30.254,"lo1":-89.0895,"lo2":-89.0444,"dy":0.0017,"dx":0.0017,"nx":28,"ny":28,"refTime":"2024-07-09T03:00:00:Z","depth":"0","parameterNumber":3,"parameterNumberName":"V-component_of_CURRENTS"},"data":[0,0,0,0,0,0,0,0,0,0,0,0,0,0,0,0,0,0,0,0,0,0,0,0,0,0,0,0,0,0,0,0,0,0,0,0,0,0,0,0,0,0,0,0,0,0,0,0,0,0,0,0,0,0,0,0,0,0,0.0043,0.0042,0,-0.0017,-0.0018,-0.0019,-0.007,-0.007,-0.007,-0.007,-0.0206,-0.021,-0.0213,0,0,0,0,0,0,0,0,0,0,0,0,0,0.0039,0.0039,0.0043,0.0042,0.0042,-0.0017,-0.0018,-0.0019,-0.007,-0.007,-0.007,-0.0071,-0.0205,-0.0209,-0.0213,0,0,0,0,0,0,0,0,0,0,0,0,0,0.0013,0.0039,0.0043,0.0012,0.0009,-0.0017,-0.0018,-0.002,-0.007,-0.007,-0.007,-0.0071,-0.0204,-0.0209,-0.0214,-0.0238,0,0,-0.0229,-0.0232,0,0,0,0,0,0,0,0,0.0014,0.0013,0.0017,0.0014,0.0011,-0.0033,-0.0069,-0.0095,-0.0069,-0.0043,-0.007,-0.0071,-0.0153,-0.0162,-0.0176,-0.0244,-0.025,-0.023,-0.0233,-0.0235,-0.0236,0,0,0,0,0,0,0,0.0016,0.0015,0.0016,0.0017,0.0013,-0.0024,-0.0028,-0.0075,-0.0099,-0.0046,-0.0049,-0.005,-0.0156,-0.0171,-0.018,-0.0252,-0.023,-0.0234,-0.0237,-0.0239,-0.0347,-0.0347,0,0,0,0,0,0,0.0035,0.0017,0.0018,0.0014,0.0015,-0.0023,-0.0028,-0.0022,-0.0097,-0.0108,-0.0049,-0.0052,-0.0162,-0.0174,-0.0185,-0.021,-0.0235,-0.024,-0.0243,-0.0347,-0.0347,-0.0346,0,0,0,0,0,0,0.0035,0.0036,0.002,0.0016,0.0012,-0.0022,-0.0015,-0.0022,-0.0035,-0.0099,-0.0111,-0.0054,-0.0163,-0.0178,-0.0219,-0.0216,-0.0242,-0.0247,-0.0347,-0.0347,-0.0347,-0.0265,0,0,0,0,0,0,0.0035,0.0037,0.0044,0.0018,0.0013,0.0015,-0.0015,-0.0023,-0.0034,-0.0038,-0.0107,-0.012,-0.0165,-0.021,-0.0223,-0.0224,-0.0251,-0.0347,-0.0347,-0.0347,-0.0268,-0.0262,-0.0257,0,0,0,0,0,0.0036,0.0054,0.0045,0.0045,0.0026,0.0016,0.001,-0.0018,-0.0033,-0.0033,-0.0079,-0.0118,-0.0218,-0.0214,-0.023,-0.0231,-0.0348,-0.0347,-0.0347,-0.027,-0.0263,-0.0257,0,0,0,0,0,0,0.0055,0.0051,0.004,0.0056,0.0041,0.0009,0.0008,-0.0011,-0.0047,-0.0053,-0.0116,-0.0132,-0.0167,-0.0209,-0.0204,-0.0261,-0.0289,-0.0292,-0.0226,-0.022,-0.0214,-0.0169,-0.0255,0,0,0,0,0,0.0066,0.0078,0.0062,0.0073,0.007,0.0039,0.0031,0.0014,-0.0018,-0.0033,-0.008,-0.0133,-0.0178,-0.0205,-0.0251,-0.0282,-0.0285,-0.0293,-0.0288,-0.0283,-0.0257,-0.0254,-0.0245,-0.0345,-0.0345,-0.0345,0,0,0.0077,0.0075,0.0082,0.0078,0.0063,0.0065,0.0033,0.0029,0.0027,-0.0044,-0.0065,-0.0115,-0.0182,-0.0215,-0.0235,-0.0249,-0.0257,-0.0282,-0.0277,-0.0253,-0.0252,-0.0242,-0.0233,-0.0345,-0.0345,-0.0345,0,0,0.0108,0.0104,0.0124,0.0118,0.0107,0.0088,0.0092,0.0065,0.005,0.0025,-0.0026,-0.0066,-0.0139,-0.0178,-0.021,-0.0202,-0.0226,-0.0224,-0.0162,-0.016,-0.0151,-0.0143,-0.0129,-0.0121,-0.0222,-0.0222,-0.0222,0,0.0118,0.0145,0.0127,0.0141,0.0144,0.0104,0.0123,0.01,0.0063,0.0068,0.0029,-0.0044,-0.0118,-0.0137,-0.0146,-0.0188,-0.018,-0.0182,-0.0149,-0.0142,-0.0135,-0.0123,-0.0115,-0.0218,-0.0219,-0.0219,-0.022,0,0.0165,0.018,0.0192,0.0198,0.0196,0.0206,0.0181,0.018,0.0152,0.0133,0.0117,0.0031,0.0002,-0.0047,-0.0104,-0.0093,-0.01,-0.0139,-0.0158,-0.0119,-0.011,-0.0103,-0.0213,-0.0214,-0.0215,-0.0216,0,0,0.0203,0.0222,0.0225,0.0256,0.0231,0.0252,0.0246,0.0254,0.0301,0.0228,0.0281,0.0157,0.0137,0.0101,0.0031,0.0007,0.0032,-0.004,-0.0042,-0.001,0.0062,0.004,0.0045,0.0008,0.0009,0.0011,0.0051,0,0.0243,0.0302,0.0286,0.034,0.0375,0.0346,0.0368,0.0368,0.0359,0.04,0.0313,0.0327,0.0186,0.0198,0.0145,0.0079,0.0056,0.0026,0.0006,0.0006,-0.0005,0.0054,0.0026,0.0059,0.0058,0.006,0.006,0,0.0293,0.0334,0.0403,0.0461,0.0476,0.0504,0.0573,0.0586,0.0606,0.0607,0.0589,0.0542,0.0497,0.0383,0.0283,0.0279,0.0181,0.0108,0.0107,0.0069,-0.0002,0.0016,0.0072,-0.0167,0.0072,0.0071,0.007,0,0.0371,0.0416,0.0489,0.0503,0.0557,0.0604,0.0633,0.0666,0.0733,0.0769,0.0839,0.0753,0.0768,0.0623,0.0438,0.0384,0.0347,0.0253,0.0139,0.0137,0.0101,0.0092,-0.0062,0.0194,0.0194,0.0193,0.0193,0,0.0434,0.05,0.0549,0.0602,0.0736,0.072,0.0864,0.0887,0.0959,0.1076,0.0975,0.1055,0.0834,0.0769,0.0553,0.0393,0.0437,0.0183,0.0155,0.0126,0.012,-0.0102,-0.0228,0.0195,0.0195,0.0194,0.0194,0,0.0543,0.0547,0.067,0.0751,0.0789,0.0905,0.1033,0.1139,0.1179,0.1339,0.1369,0.1328,0.1239,0.1008,0.0807,0.0583,0.0274,0.0324,0.031,0.028,-0.0078,-0.0197,-0.0317,-0.0424,0.0217,0.0217,0.0217,0,0.062,0.0688,0.0819,0.0913,0.097,0.1114,0.122,0.1267,0.1376,0.1505,0.1598,0.1575,0.1566,0.1272,0.0889,0.0565,0.0305,0.0308,0.0169,-0.0071,-0.0225,-0.0305,-0.0393,0.0154,0.0153,0.0153,0.0152,0,0.0803,0.0844,0.0951,0.1114,0.1245,0.1386,0.1524,0.1636,0.1705,0.1832,0.1956,0.1968,0.1703,0.1377,0.0938,0.0661,0.0139,0.0287,0.0042,-0.027,-0.0367,-0.0492,0.0103,0.0148,0.0148,0.0148,0.0149,0.0149,0.0971,0.1072,0.1178,0.1336,0.1473,0.1609,0.1727,0.1856,0.2023,0.2195,0.2205,0.2273,0.1784,0.118,0.0809,0.0091,0.0108,-0.0162,-0.0276,-0.0325,-0.0468,0.0127,0.0129,0.0129,0.0129,0.0129,0.013,0,0.1138,0.1212,0.1378,0.1532,0.167,0.1702,0.189,0.1994,0.2169,0.2373,0.2479,0.2292,0.1677,0.1039,0.0099,-0.0385,-0.058,-0.0664,-0.0817,-0.0876,-0.0345,-0.0392,-0.0506,-0.0506,-0.0506,-0.0506,-0.0505,-0.0505,0.124,0.1378,0.142,0.1642,0.1751,0.1907,0.2,0.2163,0.2323,0.2543,0.2622,0.2657,0.211,0.0451,-0.0697,-0.0967,-0.1287,-0.1336,-0.1488,-0.1186,-0.115,-0.1115,-0.1192,-0.1472,-0.1473,-0.1986,-0.1991,-0.1995]}],[{"header":{"parameterUnit":"m.s-1","parameterCategory":2,"la1":30.2991,"la2":30.254,"lo1":-89.0895,"lo2":-89.0444,"dy":0.0017,"dx":0.0017,"nx":28,"ny":28,"refTime":"2024-07-09T03:00:00:Z","depth":"2","parameterNumber":2,"parameterNumberName":"U-component_of_CURRENTS"},"data":[0,0,0,0,0,0,0,0,0,0,0,0,0,0,0,0,0,0,0,0,0,0,0,0,0,0,0,0,0,0,0,0,0,0,0,0,0,0,0,0,0,0,0,0,0,0,0,0,0,0,0,0,0,0,0,0,0,0,0.2586,0.2587,0,0.2608,0.2608,0.2608,0.2628,0.2629,0.2629,0.2629,0.2657,0.2658,0.2658,0,0,0,0,0,0,0,0,0,0,0,0,0,0.2468,0.2471,0.2586,0.2587,0.2587,0.2608,0.2608,0.2608,0.2628,0.2629,0.2629,0.2629,0.2657,0.2658,0.2658,0,0,0,0,0,0,0,0,0,0,0,0,0,0.2507,0.2471,0.2586,0.26,0.2601,0.2608,0.2608,0.2608,0.2628,0.2629,0.2629,0.2629,0.2657,0.2658,0.2658,0.2654,0,0,0.2661,0.2661,0,0,0,0,0,0,0,0,0.2505,0.2511,0.2597,0.2599,0.2601,0.2616,0.2577,0.2624,0.2628,0.2617,0.2629,0.263,0.2644,0.2646,0.2648,0.2655,0.2656,0.2661,0.2661,0.2661,0.2662,0,0,0,0,0,0,0,0.2502,0.251,0.2594,0.2598,0.26,0.2572,0.2579,0.2585,0.2628,0.2618,0.262,0.2623,0.2645,0.2647,0.2649,0.2657,0.2661,0.2661,0.2662,0.2662,0.2751,0.2753,0,0,0,0,0,0,0.2506,0.2508,0.2594,0.2595,0.2554,0.2575,0.2582,0.261,0.2628,0.2631,0.2623,0.2624,0.2646,0.2648,0.265,0.2728,0.2661,0.2662,0.2662,0.2749,0.2751,0.2753,0,0,0,0,0,0,0.2504,0.2514,0.2593,0.255,0.2559,0.2577,0.2608,0.2611,0.2633,0.2631,0.2634,0.2644,0.2646,0.2649,0.2673,0.2726,0.2662,0.2663,0.2747,0.275,0.2752,0.283,0,0,0,0,0,0,0.2501,0.2514,0.2539,0.2552,0.2561,0.2624,0.2607,0.2611,0.2633,0.2635,0.265,0.2652,0.2647,0.2672,0.2674,0.2726,0.2664,0.2744,0.2748,0.2751,0.2825,0.2835,0.2844,0,0,0,0,0,0.2497,0.2529,0.2541,0.2551,0.2596,0.2625,0.2629,0.264,0.2634,0.2658,0.2658,0.2653,0.2698,0.2674,0.2675,0.2729,0.2742,0.2747,0.2751,0.2821,0.2833,0.2844,0,0,0,0,0,0,0.2498,0.2535,0.2548,0.2594,0.262,0.263,0.265,0.2651,0.267,0.267,0.2664,0.2667,0.2714,0.2705,0.2679,0.2766,0.2725,0.273,0.2777,0.2789,0.2798,0.2822,0.2664,0,0,0,0,0,0.2509,0.2539,0.2573,0.2609,0.2629,0.2642,0.2655,0.2663,0.2675,0.2685,0.2698,0.2711,0.273,0.2745,0.276,0.2796,0.2819,0.2836,0.2846,0.2854,0.2876,0.2942,0.296,0.2768,0.2768,0.2768,0,0,0.2508,0.254,0.2552,0.261,0.263,0.2662,0.2652,0.2683,0.2708,0.2684,0.2731,0.2744,0.2746,0.2794,0.2816,0.2795,0.2924,0.2859,0.2866,0.2884,0.2948,0.2967,0.2984,0.2771,0.277,0.277,0,0,0.2524,0.2568,0.2597,0.2629,0.2672,0.2684,0.2699,0.2732,0.2754,0.2787,0.2786,0.2831,0.285,0.288,0.2888,0.2958,0.297,0.2967,0.3037,0.3101,0.3118,0.3133,0.3199,0.3219,0.2973,0.2974,0.2974,0,0.2524,0.2581,0.2609,0.2653,0.2684,0.2699,0.274,0.2759,0.2794,0.2833,0.2815,0.2892,0.2895,0.2966,0.2995,0.2983,0.302,0.299,0.3115,0.313,0.3144,0.3207,0.3229,0.2978,0.2977,0.2977,0.2977,0,0.2561,0.2613,0.2638,0.27,0.2735,0.2775,0.2811,0.2855,0.2876,0.2906,0.299,0.2998,0.3055,0.3065,0.3048,0.3159,0.3154,0.3117,0.3086,0.3168,0.323,0.325,0.2984,0.2982,0.2981,0.298,0,0,0.2554,0.2644,0.2658,0.2697,0.2769,0.2798,0.2861,0.2937,0.2993,0.3035,0.3121,0.3164,0.3194,0.3207,0.3209,0.3262,0.3389,0.324,0.3242,0.3308,0.3548,0.3448,0.346,0.3376,0.338,0.3383,0.3556,0,0.2582,0.2668,0.2705,0.2778,0.2832,0.2878,0.2932,0.3,0.3063,0.3151,0.3194,0.3271,0.3238,0.3281,0.3332,0.3378,0.3446,0.3347,0.3458,0.3462,0.3364,0.3482,0.3188,0.3309,0.3576,0.3579,0.3582,0,0.2617,0.2677,0.2754,0.2842,0.2868,0.2903,0.3021,0.3073,0.3197,0.3253,0.335,0.3392,0.3503,0.3442,0.3583,0.3524,0.3557,0.3576,0.3582,0.3478,0.34,0.3268,0.3336,0.3616,0.3613,0.3611,0.3608,0,0.261,0.2712,0.2773,0.2804,0.2898,0.2943,0.2997,0.3117,0.3193,0.3342,0.3428,0.3537,0.3615,0.3674,0.3729,0.3678,0.3866,0.3793,0.3738,0.3732,0.3498,0.3464,0.3902,0.3902,0.3902,0.3901,0.3901,0,0.2633,0.2684,0.2772,0.2802,0.2889,0.2948,0.3053,0.3133,0.3264,0.3373,0.3483,0.3596,0.368,0.3789,0.3804,0.3851,0.3937,0.3791,0.3782,0.3516,0.3483,0.3747,0.3727,0.3908,0.3906,0.3905,0.3904,0,0.2613,0.2672,0.2747,0.2845,0.2884,0.2947,0.3081,0.3159,0.3287,0.3436,0.3497,0.3688,0.3807,0.3872,0.3987,0.3951,0.3998,0.3988,0.3675,0.3624,0.3803,0.3785,0.3955,0.3953,0.3951,0.395,0.3949,0,0.2608,0.2641,0.2761,0.2822,0.2868,0.2971,0.3042,0.3165,0.3262,0.3487,0.3564,0.3739,0.3829,0.3969,0.3912,0.3924,0.3995,0.3697,0.3529,0.3841,0.3815,0.3799,0.3784,0.3265,0.3258,0.3253,0.3249,0,0.2604,0.2642,0.2713,0.2832,0.2914,0.299,0.3104,0.3173,0.3318,0.3409,0.3553,0.364,0.3759,0.3643,0.3675,0.364,0.366,0.3586,0.4032,0.328,0.3199,0.317,0.3177,0.3201,0.3205,0.3209,0.3212,0.3213,0.2618,0.2667,0.2763,0.2858,0.2941,0.2989,0.3014,0.3121,0.3195,0.3246,0.3397,0.3372,0.3421,0.3268,0.3212,0.3166,0.3379,0.3261,0.3275,0.3295,0.3166,0.3085,0.3043,0.3047,0.305,0.3053,0.3056,0,0.2664,0.2718,0.279,0.2891,0.2914,0.2958,0.3038,0.2989,0.3007,0.3018,0.3024,0.2718,0.2706,0.2763,0.261,0.2644,0.2583,0.2568,0.2463,0.2514,0.2559,0.2388,0.2062,0.2059,0.2056,0.2053,0,0,0.2721,0.2787,0.2791,0.2829,0.2861,0.2827,0.2822,0.2748,0.2721,0.2478,0.2371,0.2491,0.2651,0.2265,0.2261,0.2145,0.2298,0.2068,0.287,0.2794,0.2834,0.2974,0.2773,0,0,0,0,0]},{"header":{"parameterUnit":"m.s-1","parameterCategory":2,"la1":30.2991,"la2":30.254,"lo1":-89.0895,"lo2":-89.0444,"dy":0.0017,"dx":0.0017,"nx":28,"ny":28,"refTime":"2024-07-09T03:00:00:Z","depth":"2","parameterNumber":3,"parameterNumberName":"V-component_of_CURRENTS"},"data":[0,0,0,0,0,0,0,0,0,0,0,0,0,0,0,0,0,0,0,0,0,0,0,0,0,0,0,0,0,0,0,0,0,0,0,0,0,0,0,0,0,0,0,0,0,0,0,0,0,0,0,0,0,0,0,0,0,0,-0.0063,-0.0063,0,-0.0115,-0.0116,-0.0117,-0.0164,-0.0165,-0.0165,-0.0165,-0.0291,-0.0294,-0.0297,0,0,0,0,0,0,0,0,0,0,0,0,0,-0.008,-0.0079,-0.0063,-0.0063,-0.0064,-0.0115,-0.0116,-0.0117,-0.0164,-0.0165,-0.0165,-0.0165,-0.029,-0.0294,-0.0297,0,0,0,0,0,0,0,0,0,0,0,0,0,-0.0099,-0.0079,-0.0063,-0.0091,-0.0094,-0.0115,-0.0116,-0.0118,-0.0164,-0.0165,-0.0165,-0.0165,-0.0289,-0.0293,-0.0298,-0.0318,0,0,-0.0312,-0.0314,0,0,0,0,0,0,0,0,-0.0098,-0.0099,-0.0087,-0.0089,-0.0092,-0.0131,-0.0168,-0.0187,-0.0164,-0.0141,-0.0165,-0.0166,-0.0242,-0.0251,-0.0263,-0.0324,-0.0329,-0.0312,-0.0315,-0.0317,-0.0319,0,0,0,0,0,0,0,-0.0097,-0.0097,-0.0087,-0.0087,-0.009,-0.0127,-0.013,-0.0173,-0.0192,-0.0143,-0.0146,-0.0146,-0.0245,-0.0258,-0.0266,-0.0331,-0.0312,-0.0316,-0.0319,-0.0321,-0.0421,-0.042,0,0,0,0,0,0,-0.0079,-0.0095,-0.0085,-0.0088,-0.0093,-0.0126,-0.0129,-0.0121,-0.019,-0.02,-0.0146,-0.0148,-0.025,-0.0261,-0.0271,-0.0292,-0.0317,-0.0322,-0.0324,-0.0421,-0.0421,-0.042,0,0,0,0,0,0,-0.0079,-0.0077,-0.0083,-0.0092,-0.0094,-0.0124,-0.0115,-0.0121,-0.0133,-0.0191,-0.0203,-0.015,-0.0251,-0.0264,-0.0303,-0.0297,-0.0324,-0.0328,-0.0421,-0.0421,-0.042,-0.0338,0,0,0,0,0,0,-0.0079,-0.0077,-0.0067,-0.009,-0.0093,-0.0088,-0.0114,-0.0122,-0.0132,-0.0136,-0.0199,-0.0211,-0.0252,-0.0295,-0.0307,-0.0304,-0.0332,-0.0421,-0.0421,-0.0421,-0.0341,-0.0335,-0.033,0,0,0,0,0,-0.008,-0.0059,-0.0066,-0.0065,-0.0077,-0.0088,-0.0093,-0.0119,-0.0131,-0.0132,-0.0174,-0.0209,-0.0302,-0.0299,-0.0313,-0.0311,-0.0421,-0.0421,-0.0421,-0.0343,-0.0336,-0.033,0,0,0,0,0,0,-0.0062,-0.0062,-0.0071,-0.0051,-0.0066,-0.0094,-0.0095,-0.0113,-0.0145,-0.0149,-0.0208,-0.0223,-0.0255,-0.0294,-0.0289,-0.0339,-0.0368,-0.037,-0.0304,-0.0298,-0.0293,-0.0257,-0.0335,0,0,0,0,0,-0.0051,-0.0037,-0.005,-0.0036,-0.0039,-0.0066,-0.0074,-0.0089,-0.0118,-0.0133,-0.0176,-0.0224,-0.0265,-0.0289,-0.0332,-0.0359,-0.0384,-0.0368,-0.0362,-0.0357,-0.0338,-0.0367,-0.0362,-0.0419,-0.0419,-0.0419,0,0,-0.004,-0.004,-0.0032,-0.0032,-0.0046,-0.004,-0.0073,-0.0075,-0.0073,-0.0142,-0.0158,-0.0207,-0.0268,-0.0296,-0.0315,-0.0328,-0.0356,-0.0357,-0.0352,-0.0335,-0.0366,-0.0361,-0.0356,-0.0419,-0.0419,-0.0419,0,0,-0.001,-0.001,0.0012,0.0007,-0.0001,-0.0019,-0.0015,-0.0039,-0.0051,-0.0073,-0.012,-0.0158,-0.0226,-0.026,-0.0288,-0.0279,-0.0325,-0.0301,-0.0244,-0.0274,-0.0268,-0.0264,-0.0291,-0.029,-0.0298,-0.0298,-0.0297,0,0.0,0.0031,0.0013,0.0031,0.0037,-0.0003,0.002,0.0001,-0.0034,-0.0034,-0.0068,-0.0146,-0.0205,-0.0226,-0.0228,-0.0265,-0.0287,-0.0262,-0.0264,-0.026,-0.0258,-0.0286,-0.0285,-0.0294,-0.0294,-0.0294,-0.0295,0,0.0048,0.0069,0.0081,0.0093,0.0092,0.0105,0.0085,0.0081,0.0055,0.0034,0.0008,-0.0068,-0.0105,-0.0142,-0.0187,-0.0194,-0.0219,-0.0252,-0.0274,-0.0246,-0.0279,-0.028,-0.0288,-0.0289,-0.029,-0.0291,0,0,0.0082,0.0111,0.0115,0.0143,0.0132,0.0145,0.015,0.0153,0.0182,0.0118,0.0142,0.0048,0.0016,-0.0017,-0.0078,-0.0116,-0.0132,-0.017,-0.0173,-0.0182,-0.0191,-0.0242,-0.0249,-0.0164,-0.0164,-0.0163,-0.0221,0,0.0124,0.0187,0.0178,0.023,0.0266,0.024,0.0257,0.0253,0.0236,0.0247,0.0168,0.0162,0.0062,0.0059,0.0,-0.0091,-0.0131,-0.0113,-0.0227,-0.023,-0.0268,-0.025,-0.0214,-0.0265,-0.0223,-0.0223,-0.0223,0,0.0177,0.0217,0.0287,0.0333,0.0345,0.0368,0.0412,0.0422,0.0414,0.0405,0.0374,0.032,0.0262,0.0177,0.0035,0.0052,-0.0055,-0.0141,-0.0145,-0.0218,-0.0283,-0.0287,-0.0269,-0.0226,-0.0226,-0.0225,-0.0225,0,0.0239,0.0291,0.0359,0.0374,0.0416,0.0451,0.0469,0.048,0.0524,0.0526,0.056,0.0463,0.0442,0.0293,0.0102,0.008,-0.0058,-0.0111,-0.0259,-0.0264,-0.0267,-0.0273,-0.0202,-0.0202,-0.0202,-0.0202,-0.0202,0,0.0301,0.0358,0.0406,0.0449,0.0549,0.0538,0.0639,0.0646,0.0682,0.075,0.066,0.0695,0.0471,0.036,0.0165,-0.0048,-0.0011,-0.0237,-0.0279,-0.024,-0.0243,-0.0238,-0.0241,-0.0204,-0.0204,-0.0203,-0.0203,0,0.0373,0.0399,0.049,0.0553,0.059,0.0667,0.0766,0.0833,0.0852,0.0944,0.096,0.088,0.0718,0.0476,0.0235,0.0051,-0.0154,-0.0241,-0.0183,-0.0218,-0.0357,-0.0355,-0.04,-0.0402,-0.0404,-0.0405,-0.0406,0,0.042,0.0474,0.058,0.0659,0.0703,0.0815,0.0894,0.0929,0.1014,0.1062,0.1121,0.1,0.0921,0.0544,0.019,-0.015,-0.0189,-0.0313,-0.0363,-0.0338,-0.0375,-0.037,-0.0367,-0.0334,-0.0335,-0.0335,-0.0335,0,0.0506,0.054,0.0621,0.0772,0.088,0.1003,0.1122,0.1189,0.1232,0.1294,0.1328,0.1266,0.0925,0.0583,0.0126,-0.0098,-0.0262,-0.0337,-0.0306,-0.0298,-0.0284,-0.0318,-0.0314,-0.034,-0.0339,-0.0339,-0.0339,-0.0339,0.0579,0.0654,0.0748,0.0882,0.102,0.1142,0.1227,0.1323,0.1413,0.1453,0.1435,0.1342,0.1009,0.0386,0.0037,-0.0327,-0.0334,-0.0443,-0.0438,-0.0433,-0.0424,-0.0415,-0.0493,-0.0493,-0.0494,-0.0494,-0.0494,0,0.0645,0.0731,0.0848,0.1004,0.1111,0.1212,0.1351,0.1367,0.1435,0.1506,0.1507,0.1148,0.0812,0.0438,-0.0104,-0.0423,-0.0433,-0.0513,-0.044,-0.0434,-0.0429,-0.0416,-0.0485,-0.0486,-0.0486,-0.0487,0,0,0.0698,0.0784,0.0809,0.0988,0.1152,0.1322,0.1392,0.1367,0.1407,0.1395,0.1393,0.1319,0.091,0.0515,0.0091,-0.0184,-0.0236,-0.0246,-0.0222,-0.0079,-0.0069,-0.0361,-0.0332,0,0,0,0,0]}],[{"header":{"parameterUnit":"m.s-1","parameterCategory":2,"la1":30.2991,"la2":30.254,"lo1":-89.0895,"lo2":-89.0444,"dy":0.0017,"dx":0.0017,"nx":28,"ny":28,"refTime":"2024-07-09T03:00:00:Z","depth":"4","parameterNumber":2,"parameterNumberName":"U-component_of_CURRENTS"},"data":[0,0,0,0,0,0,0,0,0,0,0,0,0,0,0,0,0,0,0,0,0,0,0,0,0,0,0,0,0,0,0,0,0,0,0,0,0,0,0,0,0,0,0,0,0,0,0,0,0,0,0,0,0,0,0,0,0,0,0.1363,0.1364,0,0.1416,0.1416,0.1417,0.1479,0.148,0.1481,0.1482,0.1585,0.1587,0.1589,0,0,0,0,0,0,0,0,0,0,0,0,0,0.13,0.13,0.1363,0.1364,0.1365,0.1416,0.1416,0.1417,0.1479,0.148,0.1481,0.1483,0.1585,0.1587,0.1589,0,0,0,0,0,0,0,0,0,0,0,0,0,0.1336,0.1301,0.1363,0.1403,0.1407,0.1416,0.1416,0.1417,0.1478,0.148,0.1482,0.1483,0.1584,0.1587,0.1589,0.1573,0,0,0.1597,0.1598,0,0,0,0,0,0,0,0,0.1334,0.1338,0.1396,0.14,0.1405,0.1444,0.1432,0.1472,0.1478,0.145,0.1482,0.1484,0.1542,0.1548,0.1552,0.1578,0.1582,0.1597,0.1599,0.16,0.1601,0,0,0,0,0,0,0,0.1331,0.1336,0.1383,0.1397,0.1402,0.1412,0.1419,0.1439,0.1486,0.1452,0.1457,0.1465,0.1545,0.1549,0.1555,0.1583,0.1597,0.16,0.1601,0.1602,0.1735,0.1737,0,0,0,0,0,0,0.1327,0.1333,0.1381,0.1384,0.1374,0.1412,0.142,0.1428,0.1485,0.1495,0.1464,0.1468,0.1544,0.1552,0.1559,0.165,0.16,0.1602,0.1604,0.1733,0.1735,0.1738,0,0,0,0,0,0,0.1325,0.133,0.1379,0.1361,0.1368,0.1412,0.1421,0.1429,0.1469,0.1493,0.1505,0.15,0.1546,0.1555,0.1613,0.1651,0.1604,0.1606,0.1731,0.1734,0.1737,0.1763,0,0,0,0,0,0,0.1323,0.1329,0.1345,0.1361,0.1369,0.1405,0.142,0.1429,0.1469,0.1476,0.1527,0.1536,0.1548,0.1609,0.1616,0.1653,0.1608,0.1728,0.1732,0.1736,0.176,0.1767,0.1773,0,0,0,0,0,0.132,0.1322,0.1345,0.1352,0.1386,0.1405,0.1411,0.1446,0.147,0.1488,0.1531,0.1537,0.1638,0.1612,0.162,0.1659,0.1726,0.1731,0.1735,0.1757,0.1766,0.1773,0,0,0,0,0,0,0.1297,0.133,0.1355,0.1367,0.1399,0.1417,0.1437,0.1462,0.1507,0.1533,0.1552,0.1564,0.1635,0.1642,0.1613,0.1711,0.1687,0.1693,0.1701,0.1709,0.1715,0.1756,0.161,0,0,0,0,0,0.13,0.1321,0.135,0.1368,0.1384,0.1419,0.1437,0.147,0.1504,0.1528,0.156,0.1606,0.1651,0.1676,0.1714,0.1755,0.178,0.179,0.1796,0.1801,0.1842,0.1896,0.1911,0.1752,0.1752,0.1752,0,0,0.1295,0.1319,0.1332,0.1367,0.1395,0.1419,0.1435,0.1479,0.1519,0.1531,0.16,0.1633,0.167,0.1727,0.1758,0.1741,0.1857,0.1807,0.1811,0.185,0.1902,0.1917,0.1931,0.1755,0.1755,0.1754,0,0,0.1291,0.1322,0.134,0.1371,0.1426,0.1442,0.1462,0.1506,0.1553,0.1614,0.1643,0.17,0.1755,0.1789,0.1813,0.1876,0.1893,0.1893,0.1952,0.2002,0.2016,0.2028,0.206,0.2075,0.1889,0.1889,0.1889,0,0.1294,0.1321,0.1348,0.1378,0.142,0.1455,0.1497,0.1529,0.1592,0.165,0.165,0.1773,0.1788,0.1873,0.1901,0.1892,0.1925,0.1912,0.201,0.2023,0.2035,0.2065,0.2081,0.1891,0.1891,0.189,0.189,0,0.1302,0.1339,0.1353,0.1407,0.1448,0.1493,0.1547,0.1595,0.1652,0.1706,0.1824,0.185,0.1929,0.1935,0.1941,0.2042,0.2038,0.2012,0.1986,0.2052,0.208,0.2096,0.1893,0.1893,0.1892,0.1892,0,0,0.1253,0.1349,0.1358,0.1406,0.1487,0.1516,0.159,0.1679,0.1744,0.1821,0.1923,0.1998,0.204,0.2072,0.2082,0.2127,0.2215,0.212,0.2121,0.2145,0.2334,0.2153,0.2153,0.2211,0.2215,0.2218,0.231,0,0.126,0.1344,0.1392,0.1463,0.1502,0.1581,0.165,0.1744,0.1816,0.1908,0.1993,0.2091,0.2082,0.2133,0.2178,0.2219,0.2266,0.2193,0.2275,0.2278,0.2102,0.2168,0.2229,0.2323,0.2326,0.2329,0.2331,0,0.1241,0.1301,0.1413,0.1521,0.1552,0.1615,0.175,0.1815,0.1949,0.2025,0.2135,0.2193,0.2305,0.2267,0.2389,0.2351,0.2367,0.2379,0.2381,0.2225,0.2128,0.225,0.2361,0.2358,0.2356,0.2354,0.2352,0,0.1209,0.1302,0.1413,0.1455,0.1583,0.1671,0.1745,0.1877,0.1955,0.2113,0.219,0.2317,0.2393,0.2455,0.248,0.2461,0.2583,0.254,0.2394,0.2381,0.2503,0.2489,0.2632,0.2632,0.2632,0.2632,0.2631,0,0.12,0.1268,0.1414,0.148,0.1579,0.1685,0.1811,0.1899,0.2044,0.2124,0.2261,0.2321,0.2452,0.2515,0.2531,0.2507,0.2622,0.2436,0.2403,0.2508,0.2494,0.2513,0.2498,0.2635,0.2634,0.2634,0.2633,0,0.1158,0.1276,0.1367,0.1529,0.1581,0.1658,0.1831,0.1876,0.2059,0.2158,0.2226,0.2376,0.2456,0.2536,0.262,0.2546,0.2552,0.2509,0.2627,0.2594,0.231,0.2296,0.2378,0.2373,0.2368,0.2364,0.2361,0,0.1172,0.1221,0.1381,0.1416,0.1504,0.1624,0.1679,0.187,0.1917,0.2142,0.2161,0.2321,0.2389,0.2383,0.2469,0.2502,0.2464,0.2458,0.239,0.233,0.2291,0.2283,0.2275,0.2354,0.2352,0.2351,0.235,0,0.1131,0.1201,0.127,0.1324,0.1399,0.1467,0.1579,0.1622,0.181,0.1994,0.2065,0.213,0.2205,0.2264,0.2308,0.2315,0.2461,0.241,0.2419,0.2355,0.2302,0.2265,0.2263,0.2334,0.2337,0.2338,0.2339,0,0.108,0.1082,0.1142,0.1177,0.1242,0.1262,0.1371,0.144,0.1548,0.1819,0.1819,0.1994,0.2153,0.2164,0.2191,0.2203,0.2175,0.2106,0.2131,0.2149,0.203,0.1925,0.1838,0,0,0,0,0,0.0965,0.0926,0.0959,0.0993,0.1045,0.1092,0.1242,0.1352,0.1562,0.1557,0.1704,0.1767,0.1852,0.1939,0.1907,0.2072,0.2163,0.2024,0.209,0.2246,0.2265,0.2143,0,0,0,0,0,0,0.0877,0.0878,0.089,0.0806,0.0795,0.0844,0.0945,0.1106,0.1147,0.1379,0.1439,0.1631,0.1739,0.1834,0.1856,0.1885,0.1886,0.2149,0.2144,0.2236,0.2252,0.2267,0.2149,0,0,0,0,0]},{"header":{"parameterUnit":"m.s-1","parameterCategory":2,"la1":30.2991,"la2":30.254,"lo1":-89.0895,"lo2":-89.0444,"dy":0.0017,"dx":0.0017,"nx":28,"ny":28,"refTime":"2024-07-09T03:00:00:Z","depth":"4","parameterNumber":3,"parameterNumberName":"V-component_of_CURRENTS"},"data":[0,0,0,0,0,0,0,0,0,0,0,0,0,0,0,0,0,0,0,0,0,0,0,0,0,0,0,0,0,0,0,0,0,0,0,0,0,0,0,0,0,0,0,0,0,0,0,0,0,0,0,0,0,0,0,0,0,0,0.0032,0.0031,0,0.0005,0.0005,0.0005,-0.0029,-0.0029,-0.003,-0.003,-0.012,-0.0122,-0.0124,0,0,0,0,0,0,0,0,0,0,0,0,0,-0.0005,-0.0004,0.0032,0.0031,0.0031,0.0005,0.0005,0.0004,-0.0029,-0.0029,-0.003,-0.003,-0.0119,-0.0121,-0.0124,0,0,0,0,0,0,0,0,0,0,0,0,0,-0.0007,-0.0003,0.0032,0.0012,0.0011,0.0006,0.0005,0.0004,-0.0029,-0.0029,-0.003,-0.0031,-0.0118,-0.0121,-0.0124,-0.013,0,0,-0.0133,-0.0135,0,0,0,0,0,0,0,0,-0.0007,-0.0006,0.0015,0.0014,0.0012,-0.0008,-0.0041,-0.0043,-0.0029,-0.0015,-0.003,-0.0031,-0.0087,-0.0092,-0.0097,-0.0134,-0.0138,-0.0133,-0.0135,-0.0137,-0.0137,0,0,0,0,0,0,0,-0.0006,-0.0005,0.002,0.0015,0.0013,-0.0014,-0.0015,-0.0041,-0.005,-0.0017,-0.0019,-0.0019,-0.0089,-0.0094,-0.01,-0.0139,-0.0133,-0.0136,-0.0138,-0.0139,-0.0199,-0.0199,0,0,0,0,0,0,0.0004,-0.0004,0.0021,0.0019,0.0002,-0.0013,-0.0014,-0.0002,-0.0048,-0.0055,-0.0019,-0.0021,-0.0089,-0.0096,-0.0103,-0.011,-0.0137,-0.0139,-0.0141,-0.02,-0.0199,-0.0199,0,0,0,0,0,0,0.0003,0.0007,0.0022,0.0007,0.0007,-0.0011,0.0002,-0.0002,-0.001,-0.0048,-0.0057,-0.0022,-0.0089,-0.0099,-0.0127,-0.0114,-0.0141,-0.0143,-0.02,-0.0199,-0.0199,-0.0128,0,0,0,0,0,0,0.0002,0.0007,0.0017,0.0008,0.0008,0.0024,0.0002,-0.0002,-0.0008,-0.0011,-0.0054,-0.0063,-0.0091,-0.0122,-0.013,-0.0119,-0.0146,-0.02,-0.02,-0.0199,-0.013,-0.0125,-0.012,0,0,0,0,0,0.0001,0.0023,0.0018,0.0021,0.0024,0.0025,0.0023,0.0005,-0.0008,-0.0005,-0.0038,-0.0062,-0.0125,-0.0124,-0.0134,-0.0123,-0.02,-0.02,-0.0199,-0.0132,-0.0126,-0.012,0,0,0,0,0,0,0.0014,0.0022,0.0016,0.004,0.0034,0.002,0.0023,0.0009,-0.0013,-0.0021,-0.0061,-0.0071,-0.0092,-0.0119,-0.0117,-0.0141,-0.0166,-0.0167,-0.0112,-0.0106,-0.0102,-0.0094,-0.0148,0,0,0,0,0,0.0023,0.0039,0.0037,0.0053,0.0055,0.0038,0.0035,0.0023,0.0003,-0.0007,-0.0035,-0.0069,-0.0096,-0.011,-0.0139,-0.0152,-0.0199,-0.0152,-0.0147,-0.0142,-0.0143,-0.0209,-0.021,-0.0198,-0.0198,-0.0198,0,0,0.0032,0.0038,0.0047,0.0056,0.005,0.0063,0.0035,0.0035,0.004,-0.0014,-0.0019,-0.0055,-0.0096,-0.011,-0.0121,-0.0131,-0.017,-0.0142,-0.0137,-0.0141,-0.0209,-0.021,-0.0211,-0.0197,-0.0197,-0.0197,0,0,0.0059,0.0065,0.0086,0.0088,0.0086,0.0078,0.008,0.0068,0.0059,0.0046,0.0011,-0.0018,-0.0057,-0.008,-0.0098,-0.0085,-0.0143,-0.0094,-0.006,-0.0123,-0.0125,-0.0127,-0.0181,-0.0189,-0.0088,-0.0088,-0.0088,0,0.0064,0.0099,0.009,0.0111,0.0117,0.009,0.0111,0.0102,0.008,0.0067,0.0051,-0.0014,-0.0042,-0.0064,-0.0053,-0.0073,-0.0121,-0.0075,-0.0116,-0.012,-0.0123,-0.0179,-0.0188,-0.0085,-0.0085,-0.0086,-0.0086,0,0.0109,0.0134,0.0147,0.0166,0.0169,0.0182,0.0172,0.0168,0.0147,0.0125,0.009,0.0046,0.0004,-0.0002,-0.0021,-0.005,-0.0081,-0.0104,-0.0129,-0.012,-0.0179,-0.019,-0.008,-0.0081,-0.0082,-0.0083,0,0,0.0128,0.017,0.0173,0.0187,0.02,0.0201,0.0218,0.0212,0.0201,0.0171,0.0146,0.0115,0.0073,0.005,0.0017,-0.0026,-0.0078,-0.0066,-0.0071,-0.0115,-0.0221,-0.0196,-0.0206,-0.0114,-0.0116,-0.0117,-0.025,0,0.0164,0.0207,0.0222,0.0258,0.028,0.027,0.0283,0.0267,0.0237,0.0204,0.0153,0.0114,0.0099,0.0072,0.0029,-0.0056,-0.0105,-0.004,-0.0228,-0.0233,-0.0208,-0.0217,-0.0122,-0.0258,-0.0261,-0.0263,-0.0264,0,0.0206,0.0228,0.0274,0.0297,0.0305,0.0322,0.0314,0.0319,0.0274,0.0247,0.0199,0.0143,0.0091,0.0064,-0.0069,-0.0031,-0.0117,-0.0184,-0.0191,-0.0202,-0.0228,-0.0273,-0.0285,-0.0283,-0.0282,-0.028,-0.0279,0,0.0211,0.0261,0.0294,0.0307,0.0333,0.0347,0.0352,0.0327,0.0321,0.0267,0.0241,0.0157,0.011,-0.0002,-0.0117,-0.0107,-0.0285,-0.0294,-0.0356,-0.0356,-0.037,-0.0367,-0.0406,-0.0406,-0.0406,-0.0405,-0.0405,0,0.024,0.0263,0.0301,0.0317,0.0339,0.0357,0.0361,0.0352,0.0335,0.0325,0.0261,0.023,0.0088,-0.0022,-0.0132,-0.027,-0.03,-0.0355,-0.039,-0.0336,-0.0327,-0.0378,-0.0373,-0.041,-0.0409,-0.0408,-0.0407,0,0.0226,0.0266,0.0295,0.0331,0.0346,0.035,0.0375,0.0373,0.0367,0.0353,0.0341,0.0263,0.0141,-0.001,-0.0203,-0.0279,-0.0423,-0.0471,-0.04,-0.0429,-0.045,-0.044,-0.0552,-0.0552,-0.0552,-0.0552,-0.0553,0,0.0212,0.0237,0.028,0.0298,0.0317,0.0339,0.036,0.038,0.039,0.0382,0.0377,0.0271,0.0204,-0.0034,-0.0199,-0.0423,-0.0446,-0.053,-0.0483,-0.0443,-0.0467,-0.0456,-0.0446,-0.0553,-0.0553,-0.0553,-0.0553,0,0.0174,0.0197,0.0215,0.0269,0.0304,0.0338,0.0377,0.04,0.0438,0.0417,0.042,0.0315,0.0173,-0.0005,-0.0188,-0.0345,-0.0477,-0.0533,-0.0533,-0.0489,-0.0446,-0.0467,-0.0456,-0.0554,-0.0554,-0.0554,-0.0554,0,0.0125,0.0133,0.0186,0.0244,0.0291,0.0369,0.0374,0.0424,0.0453,0.0472,0.0464,0.0341,0.0254,0.0032,-0.0134,-0.0287,-0.0316,-0.0358,-0.0368,-0.0369,-0.0267,-0.0183,-0.0243,0,0,0,0,0,0.0088,0.0139,0.0167,0.0259,0.0312,0.0363,0.0415,0.0428,0.0472,0.0489,0.0494,0.0381,0.0179,0.0079,-0.0066,-0.0162,-0.037,-0.034,-0.0429,-0.0558,-0.0557,-0.0465,0,0,0,0,0,0,0.0069,0.0105,0.0168,0.029,0.0356,0.0434,0.048,0.0494,0.0508,0.0518,0.0411,0.0356,0.0143,0.0277,-0.0058,-0.011,-0.0184,-0.0446,-0.0449,-0.0559,-0.0558,-0.0557,-0.0462,0,0,0,0,0]}]]